Pittsfield, MA

9:34 PM EDT on August 22, 2019 (GMT -0400)
Pittsfield Municipal

Weather History for KPSF - June, 2019

Change the Weather History Date:

Wednesday, June 12, 2019

  Actual Average Record
Temperature  
Mean Temperature 60 °F 63 °F  
Max Temperature 75 °F 73 °F 91 °F (1933)
Min Temperature 46 °F 52 °F 35 °F (1966)
Degree Days  
Heating Degree Days 4 4  
Month to date heating degree days 42 61  
Since 1 June heating degree days 42 61  
Since 1 July heating degree days 6947 7421  
Cooling Degree Days 0 2  
Month to date cooling degree days 1 17  
Year to date cooling degree days 7 30  
Since 1 June cooling degree days 1 17  
Growing Degree Days 10 (Base 50)    
Moisture  
Dew Point 45 °F    
Average Humidity 57    
Maximum Humidity 93    
Minimum Humidity 33    
Precipitation  
Precipitation 0.00 in 0.16 in 1.43 in (1938)
Month to date precipitation 1.55 2.11  
Year to date precipitation 19.27 19.15  
Sea Level Pressure  
Sea Level Pressure 30.09 in    
Wind  
Wind Speed 4 mph ()    
Max Wind Speed 15 mph    
Max Gust Speed 20 mph    
Visibility 10.0 miles    
Events      
T = Trace of Precipitation, MM = Missing Value Source: Averaged Metar Reports

Daily Weather History Graph

Daily Weather History Graph

Search for Another Location

Airport or City:

Astronomy

Jun. 12, 2019 Rise Set
Actual Time 5:15 AM EDT 8:30 PM EDT
Civil Twilight 4:40 AM EDT 9:05 PM EDT
Nautical Twilight 3:56 AM EDT 9:50 PM EDT
Astronomical Twilight 3:01 AM EDT 10:44 PM EDT
Moon 3:28 PM EDT (6/12) 2:36 AM EDT (6/12)
Length of Visible Light 16h 24m
Length of Day
15h 15m
Waxing Gibbous, 76% of the Moon is Illuminated
Jun 12
Waxing Gibbous
Jun 17
Full
Jun 25
Last Quarter
Jul 2
New
Jul 9
First Quarter

Hourly Weather History & Observations

Time (EDT) Temp. Dew Point Humidity Pressure Visibility Wind Dir Wind Speed Gust Speed Precip Events Conditions
12:54 AM 53.1 °F 46.0 °F 77% 30.04 in 10.0 mi West 5.8 mph - N/A   Clear
1:54 AM 52.0 °F 46.9 °F 83% 30.06 in 10.0 mi Calm Calm - N/A   Clear
2:54 AM 50.0 °F 46.0 °F 86% 30.07 in 10.0 mi Calm Calm - N/A   Clear
3:54 AM 46.9 °F 44.1 °F 90% 30.08 in 10.0 mi Calm Calm - N/A   Clear
4:54 AM 48.9 °F 45.0 °F 86% 30.10 in 10.0 mi SSW 4.6 mph - N/A   Clear
5:54 AM 46.9 °F 44.1 °F 90% 30.12 in 10.0 mi Calm Calm - N/A   Clear
6:54 AM 53.1 °F 48.0 °F 83% 30.12 in 10.0 mi Calm Calm - N/A   Clear
7:54 AM 57.9 °F 46.9 °F 67% 30.14 in 10.0 mi Calm Calm - N/A   Clear
8:54 AM 61.0 °F 48.9 °F 64% 30.15 in 10.0 mi Variable 3.5 mph - N/A   Clear
9:54 AM 64.0 °F 46.9 °F 54% 30.15 in 10.0 mi Variable 3.5 mph - N/A   Clear
10:54 AM 68.0 °F 39.0 °F 35% 30.14 in 10.0 mi ENE 3.5 mph - N/A   Clear
11:54 AM 69.1 °F 41.0 °F 36% 30.13 in 10.0 mi West 4.6 mph - N/A   Clear
12:54 PM 71.1 °F 42.1 °F 35% 30.12 in 10.0 mi Calm Calm - N/A   Clear
1:54 PM 72.0 °F 43.0 °F 35% 30.09 in 10.0 mi North - - N/A   Clear
2:54 PM 73.0 °F 43.0 °F 34% 30.09 in 10.0 mi SSW 4.6 mph - N/A   Clear
3:54 PM 73.9 °F 44.1 °F 34% 30.07 in 10.0 mi SSW 10.4 mph - N/A   Clear
4:54 PM 73.0 °F 44.1 °F 35% 30.06 in 10.0 mi SSW 10.4 mph - N/A   Clear
5:54 PM 71.1 °F 46.9 °F 42% 30.04 in 10.0 mi SSW 10.4 mph - N/A   Clear
6:54 PM 70.0 °F 44.1 °F 39% 30.05 in 10.0 mi South 8.1 mph - N/A   Clear
7:54 PM 68.0 °F 46.9 °F 47% 30.05 in 10.0 mi SSW 8.1 mph - N/A   Clear
8:54 PM 64.9 °F 46.0 °F 50% 30.05 in 10.0 mi South 9.2 mph - N/A   Clear
9:54 PM 62.1 °F 46.0 °F 56% 30.07 in 10.0 mi South 13.8 mph - N/A   Clear
10:54 PM 61.0 °F 46.0 °F 58% 30.06 in 10.0 mi South 9.2 mph - N/A   Clear
11:54 PM 59.0 °F 46.0 °F 62% 30.04 in 10.0 mi SE 6.9 mph - N/A   Clear